Change the Weather History Date:

Monday, February 11, 2013

  Actual Average Record
Temperature  
Mean Temperature 43 °F 30 °F  
Max Temperature 51 °F 39 °F 72 °F (1999)
Min Temperature 34 °F 23 °F -10 °F (2014)
Degree Days  
Heating Degree Days 22 34  
Month to date heating degree days 373 387  
Since 1 July heating degree days 3276 3616  
Cooling Degree Days 0 0  
Month to date cooling degree days 0 0  
Year to date cooling degree days 0 0  
Moisture  
Dew Point 33 °F    
Average Humidity 71    
Maximum Humidity 89    
Minimum Humidity 53    
Precipitation  
Precipitation T in 0.09 in 1.32 in (2009)
Month to date precipitation 0.20 0.93  
Year to date precipitation 4.08 3.32  
Sea Level Pressure  
Sea Level Pressure 29.86 in    
Wind  
Wind Speed 16 mph (WSW)    
Max Wind Speed 30 mph    
Max Gust Speed 38 mph    
Visibility 10 miles    
Events      
T = Trace of Precipitation, MM = Missing Value Source: NWS Daily Summary

Daily Weather History Graph

Daily Weather History Graph

Search for Another Location

Airport or City:

Trip Planner

Search our weather history database for the weather conditions in past years. The results will help you decide how hot, cold, wet, or windy it might be!

Date:

Astronomy

Feb. 11, 2013 Rise Set
Actual Time 7:40 AM EST 6:15 PM EST
Civil Twilight 7:12 AM EST 6:43 PM EST
Nautical Twilight 6:40 AM EST 7:14 PM EST
Astronomical Twilight 6:09 AM EST 7:46 PM EST
Moon 8:04 AM EST (2/11) 8:10 PM EST (2/11)
Length of Visible Light 11h 30m
Length of Day
10h 35m
Waxing Crescent, 3% of the Moon is Illuminated
Feb 11
Waxing Crescent
Feb 17
First Quarter
Feb 25
Full
Mar 4
Last Quarter
Mar 11
New

Hourly Weather History & Observations

Time (EST) Temp. Windchill Dew Point Humidity Pressure Visibility Wind Dir Wind Speed Gust Speed Precip Events Conditions
12:53 AM 51.1 °F - 48.0 °F 89% 29.71 in 10.0 mi South 15.0 mph 24.2 mph 0.00 in   Overcast
1:02 AM 51.8 °F - 48.2 °F 88% 29.71 in 10.0 mi South 18.4 mph 24.2 mph N/A   Overcast
1:33 AM 51.8 °F - 48.2 °F 88% 29.71 in 10.0 mi South 15.0 mph - N/A   Overcast
1:53 AM 51.1 °F - 48.0 °F 89% 29.72 in 10.0 mi South 16.1 mph - N/A   Overcast
2:08 AM 51.8 °F - 46.4 °F 82% 29.71 in 10.0 mi South 13.8 mph - N/A   Mostly Cloudy
2:53 AM 50.0 °F - 46.0 °F 86% 29.71 in 10.0 mi SSW 9.2 mph - N/A   Partly Cloudy
3:53 AM 50.0 °F - 43.0 °F 77% 29.71 in 10.0 mi SW 12.7 mph - N/A   Clear
4:53 AM 50.0 °F - 37.0 °F 61% 29.72 in 10.0 mi SW 21.9 mph 31.1 mph N/A   Mostly Cloudy
5:53 AM 48.0 °F - 33.1 °F 56% 29.74 in 10.0 mi WSW 19.6 mph 29.9 mph N/A   Mostly Cloudy
6:53 AM 45.0 °F 37.4 °F 32.0 °F 60% 29.78 in 10.0 mi WSW 18.4 mph - N/A   Clear
7:53 AM 41.0 °F 32.2 °F 28.0 °F 60% 29.82 in 10.0 mi WSW 18.4 mph 27.6 mph N/A   Clear
8:53 AM 41.0 °F 32.2 °F 28.9 °F 62% 29.85 in 10.0 mi WSW 18.4 mph 27.6 mph N/A   Overcast
9:53 AM 41.0 °F 30.5 °F 27.0 °F 57% 29.87 in 10.0 mi WSW 26.5 mph 33.4 mph N/A   Overcast
10:53 AM 39.9 °F 30.0 °F 25.0 °F 55% 29.90 in 10.0 mi WSW 21.9 mph 29.9 mph N/A   Overcast
11:53 AM 39.9 °F 29.7 °F 26.1 °F 58% 29.92 in 10.0 mi WSW 23.0 mph 33.4 mph N/A   Overcast
12:53 PM 41.0 °F 31.6 °F 27.0 °F 57% 29.91 in 10.0 mi WSW 20.7 mph 29.9 mph N/A   Overcast
1:53 PM 43.0 °F 33.3 °F 28.0 °F 56% 29.90 in 10.0 mi WSW 25.3 mph 36.8 mph N/A   Overcast
2:53 PM 42.1 °F 32.6 °F 28.0 °F 58% 29.92 in 10.0 mi WSW 23.0 mph 33.4 mph N/A   Overcast
3:53 PM 42.1 °F 33.6 °F 28.0 °F 58% 29.94 in 10.0 mi WSW 18.4 mph 27.6 mph N/A   Overcast
4:53 PM 42.1 °F 34.9 °F 26.1 °F 53% 29.96 in 10.0 mi West 13.8 mph 21.9 mph N/A   Overcast
5:53 PM 41.0 °F 34.7 °F 28.9 °F 62% 29.96 in 10.0 mi WSW 10.4 mph 21.9 mph N/A   Overcast
6:53 PM 41.0 °F 35.8 °F 28.9 °F 62% 29.99 in 10.0 mi West 8.1 mph - N/A   Mostly Cloudy
7:53 PM 39.9 °F 32.5 °F 27.0 °F 60% 30.00 in 10.0 mi West 12.7 mph - N/A   Partly Cloudy
8:53 PM 37.9 °F 31.5 °F 27.0 °F 65% 30.02 in 10.0 mi West 9.2 mph - N/A   Clear
9:53 PM 35.1 °F 30.1 °F 27.0 °F 72% 30.03 in 10.0 mi West 5.8 mph - N/A   Clear
10:53 PM 35.1 °F 29.3 °F 27.0 °F 72% 30.04 in 10.0 mi WSW 6.9 mph - N/A   Clear
11:53 PM 35.1 °F 28.6 °F 27.0 °F 72% 30.05 in 10.0 mi WSW 8.1 mph - N/A   Clear